This is the latest recevied weather packets stored in our database for station/object WR9A-13. If no packets are shown the sender has not sent any weather packets the latest 10 day(s).
| Time | Temp. | Humidity | Pressure | Rain* | Wind** | Luminosity | Snow |
|---|---|---|---|---|---|---|---|
| 1777501816 | 15.56° C | 53% | 1014 hPa | 0 mm | - | - | - |
| 1777501533 | 15.56° C | 55% | 1014 hPa | 0 mm | - | - | - |
| 1777501220 | 15° C | 55% | 1014 hPa | 0 mm | - | - | - |
| 1777500919 | 15° C | 57% | 1014 hPa | 0 mm | - | - | - |
| 1777500626 | 15° C | 56% | 1014 hPa | 0 mm | - | - | - |
| 1777500323 | 15.56° C | 56% | 1014 hPa | 0 mm | - | - | - |
| 1777500035 | 15.56° C | 55% | 1014 hPa | 0 mm | - | - | - |
| 1777499723 | 15.56° C | 54% | 1013.9 hPa | 0 mm | - | - | - |
| 1777499440 | 16.11° C | 52% | 1013.8 hPa | 0 mm | - | - | - |
| 1777499125 | 16.11° C | 54% | 1013.8 hPa | 0 mm | - | - | - |
| 1777498842 | 16.11° C | 55% | 1013.8 hPa | 0 mm | - | - | - |
| 1777498529 | 16.11° C | 55% | 1013.7 hPa | 0 mm | - | - | - |
| 1777498216 | 16.11° C | 55% | 1013.7 hPa | 0 mm | - | - | - |
| 1777497929 | 16.11° C | 60% | 1013.7 hPa | 0 mm | - | - | - |
| 1777497627 | 15.56° C | 59% | 1013.7 hPa | 0 mm | - | - | - |
| 1777497314 | 15.56° C | 59% | 1013.8 hPa | 0 mm | - | - | - |
| 1777497031 | 16.11° C | 57% | 1013.7 hPa | 0 mm | - | - | - |
| 1777496718 | 16.11° C | 56% | 1013.6 hPa | 0.25 mm | - | - | - |
| 1777496428 | 16.11° C | 59% | 1013.8 hPa | 0.25 mm | - | - | - |
| 1777496116 | 16.11° C | 58% | 1013.7 hPa | 0.25 mm | - | - | - |
| 1777495833 | 16.11° C | 57% | 1013.9 hPa | 0.25 mm | - | - | - |
| 1777495521 | 16.67° C | 57% | 1013.7 hPa | 0.25 mm | - | - | - |
| 1777495217 | 16.67° C | 58% | 1013.7 hPa | 0.25 mm | - | - | - |
| 1777494937 | 16.67° C | 61% | 1013.7 hPa | 0.25 mm | - | - | - |
| 1777494623 | 16.11° C | 58% | 1013.9 hPa | 0.25 mm | - | - | - |
* Rain latest hour (hover to see other rain measurements)
** Current wind speed in m/s (hover to see current wind gust speed)